Regional Weather Roundup
Issued by NWS

Home | Current Version | Previous Version | Graphics & Text | Print | Product List | Glossary On
Versions: 1 2 3 4 5 6 7 8 9 10 11 12 13 14 15 16 17 18 19 20 21 22 23 24 25 26 27 28 29 30 31 32 33 34 35 36 37 38 39 40 41 42 43 44 45 46 47 48 49 50
000
ASUS43 KDMX 211407
RWRIA

WEATHER ROUNDUP FOR IOWA
NATIONAL WEATHER SERVICE DES MOINES IA
800 AM CST SUN DEC 21 2014

NOTE: "FAIR" INDICATES FEW OR NO CLOUDS BELOW 12,000 FEET WITH NO
SIGNIFICANT WEATHER AND/OR OBSTRUCTIONS TO VISIBILITY.

* - THESE STATIONS ARE NOT NWS STATIONS...THUS NOT UNDER NWS
QUALITY CONTROL.  THEY ALSO DO NOT REPORT WEATHER SUCH
AS PRECIPITATION OR FOG.

IAZ001>003-012>014-020>022-031>034-043>046-211500-
   NORTHWEST IOWA

CITY           SKY/WX    TMP DP  RH WIND       PRES   REMARKS
CARROLL *      FOG       36  36 100 S20G28    29.87F VSB 1   WCI  25
CHEROKEE *     CLOUDY    36  36 100 S13       29.83F FOG     WCI  27
DENISON *      FOG       36  36 100 S17G24    29.84F VSB 1   WCI  25
LE MARS *      CLOUDY    36  36 100 S14       29.81F FOG     WCI  27
ORANGE CITY *  FOG       36  34  93 S14       29.80S VSB 1/4 WCI  27
SHELDON *      CLOUDY    34  34 100 S13       29.79F FOG     WCI  25
SIOUX CITY     CLOUDY    37  36  96 S13       29.83F FOG     WCI  29
SPENCER        CLOUDY    36  34  92 S13       29.83F FOG     WCI  27
STORM LAKE *   FOG       36  36 100 S17       29.83F VSB 0   WCI  25
$$

IAZ055>058-069>071-079>083-090>094-211500-
   SOUTHWEST IOWA

CITY           SKY/WX    TMP DP  RH WIND       PRES   REMARKS
ATLANTIC *     CLOUDY    37  37 100 S16       29.91F FOG     WCI  28
AUDUBON *      CLOUDY    36  32  87 S13G20    29.90F FOG     WCI  27
CLARINDA *     CLOUDY    37  36  93 S13G18    29.96F WCI  29
COUNCIL BLFS * CLOUDY    39  39 100 S14       29.88S WCI  31
CRESTON *      CLOUDY    36  36 100 S16       29.96F FOG     WCI  26
HARLAN  *      CLOUDY    37  37 100 S16       29.91F FOG     WCI  28
LAMONI         CLOUDY    36  34  92 S13       30.01F WCI  27
RED OAK *      CLOUDY    37  37 100 S14       29.93F WCI  29
SHENANDOAH *   MOCLDY    37  36  93 S17       29.94F FOG     WCI  28
$$

IAZ047>049-059>061-072>074-084-211500-
   CENTRAL IOWA

CITY           SKY/WX    TMP DP  RH WIND       PRES   REMARKS
AMES           CLOUDY    37  33  85 S16       29.95F WCI  28
ANKENY *       CLOUDY    37  36  93 S15G24    29.97F WCI  28
CHARITON *     CLOUDY    37  36  93 S17       30.00F FOG     WCI  28
DES MOINES     CLOUDY    39  34  82 S14       29.98F WCI  31
GRINNELL*      CLOUDY    37  36  93 S15       30.01F WCI  28
KNOXVILLE *    CLOUDY    37  36  93 S15       29.99F WCI  28
MARSHALLTOWN   CLOUDY    37  35  92 S16       29.97F WCI  28
PELLA *        CLOUDY    39  36  87 S12       30.03F FOG     WCI  32
PERRY *        CLOUDY    37  36  93 S17       29.92F FOG     WCI  28
$$

IAZ004>006-015-016-023>025-035-036-211500-
   NORTH CENTRAL IOWA

CITY           SKY/WX    TMP DP  RH WIND       PRES   REMARKS
ALGONA *       FOG       36  36 100 S18       29.87F VSB 3/4 WCI  25
CLARION *      CLOUDY    36  36 100 S18       29.90F FOG     WCI  25
ESTHERVILLE    CLOUDY    34  34 100 S14G22    29.83F FOG     WCI  25
FORT DODGE *   CLOUDY    36  34  93 S16       29.90F WCI  26
MASON CITY     CLOUDY    35  34  96 S14       29.92F FOG     WCI  26
FOREST CITY *  CLOUDY    36  34  93 S15       29.89F FOG     WCI  26
IOWA FALLS *   CLOUDY    36  36 100 S20       29.95S FOG     WCI  25
$$

IAZ007>011-017>019-026>030-037>042-050>054-066-211500-
   NORTHEAST IOWA

CITY           SKY/WX    TMP DP  RH WIND       PRES   REMARKS
CEDAR RAPIDS   CLOUDY    36  35  96 S10       30.04F FOG     WCI  28
CHARLES CITY * CLOUDY    36  36 100 S16       29.96F FOG     WCI  26
CLINTON *      CLOUDY    34  30  86 SE6       30.15F WCI  29
DECORAH *      FOG       34  34 100 S12       29.98F VSB 1/2 WCI  25
DUBUQUE        CLOUDY    33  32  96 S17       30.06F FOG     WCI  22
MONTICELLO *   CLOUDY    36  36 100 S13       30.06F FOG     WCI  27
OELWEIN *      CLOUDY    36  36 100 S17       30.01F FOG     WCI  25
WATERLOO       CLOUDY    35  35 100 S13       29.99F WCI  26
$$

IAZ064-065-067-068-078-211500-
   EAST CENTRAL IOWA

CITY           SKY/WX    TMP DP  RH WIND       PRES   REMARKS
DAVENPORT      CLOUDY    36  32  85 S12       30.12S WCI  28
IOWA CITY      CLOUDY    37  34  89 S13       30.09F WCI  29
MT. PLEASANT * CLOUDY    37  36  93 S9        30.11F WCI  31
MUSCATINE *    CLOUDY    37  34  87 S9        30.11F WCI  31
QUAD CITIES    CLOUDY    36  32  85 S8        30.12F WCI  30
$$

IAZ062-063-075>077-085>089-095>099-211500-
   SOUTHEAST IOWA

CITY           SKY/WX    TMP DP  RH WIND       PRES   REMARKS
BURLINGTON     LGT RAIN  38  34  85 S13       30.12F WCI  30
FAIRFIELD *    CLOUDY    37  34  87 S12       30.08F WCI  30
FORT MADISON * CLOUDY    39  37  93 S8        30.12F WCI  34
KEOKUK *       CLOUDY    39  36  87 SE6G13    30.11F WCI  35
OSKALOOSA *    CLOUDY    37  34  87 S13       30.05F FOG     WCI  29
CENTERVILLE *  CLOUDY    37  37 100 S9        30.05F WCI  31
OTTUMWA        CLOUDY    38  34  85 S15       30.04F WCI  29
WASHINGTON *   CLOUDY    37  37 100 S13       30.08F WCI  29
$$

ABBREVIATIONS USED IN REMARKS
   TC - TEMPERATURES IN CELSIUS
  WCI - WIND CHILL INDEX
   HX - HEAT INDEX
  VSB - VISIBILITY
$$




USA.gov is the U.S. government's official web portal to all federal, state and local government web resources and services.